This is the latest recevied weather packets stored in our database for station/object KD2DXJ. If no packets are shown the sender has not sent any weather packets the latest 10 day(s).
| Time | Temp. | Humidity | Pressure | Rain* | Wind** | Luminosity | Snow |
|---|---|---|---|---|---|---|---|
| 1777821436 | 11.11° C | 42% | 1011.4 hPa | 0 mm | - | 723 W/m² | - |
| 1777821133 | 10° C | 43% | 1011.4 hPa | 0 mm | - | 676 W/m² | - |
| 1777820830 | 10.56° C | 46% | 1011.3 hPa | 0 mm | - | 404 W/m² | - |
| 1777820526 | 10.56° C | 51% | 1011.3 hPa | 0 mm | - | 663 W/m² | - |
| 1777820223 | 10.56° C | 43% | 1011.4 hPa | 0 mm | - | 617 W/m² | - |
| 1777819920 | 10.56° C | 43% | 1011.3 hPa | 0 mm | - | 640 W/m² | - |
| 1777819617 | 10.56° C | 47% | 1011.3 hPa | 0 mm | - | 589 W/m² | - |
| 1777819315 | 10.56° C | 43% | 1011.6 hPa | 0 mm | - | 570 W/m² | - |
| 1777819011 | 10.56° C | 44% | 1011.5 hPa | 0 mm | - | 560 W/m² | - |
| 1777818709 | 9.44° C | 45% | 1011.5 hPa | 0 mm | - | 550 W/m² | - |
| 1777818405 | 10.56° C | 43% | 1011.7 hPa | 0 mm | - | 545 W/m² | - |
| 1777818102 | 10° C | 47% | 1011.6 hPa | 0 mm | - | 539 W/m² | - |
| 1777817798 | 8.89° C | 46% | 1011.6 hPa | 0 mm | - | 557 W/m² | - |
| 1777817496 | 8.89° C | 46% | 1011.9 hPa | 0 mm | - | 526 W/m² | - |
| 1777817192 | 9.44° C | 43% | 1011.9 hPa | 0 mm | - | 465 W/m² | - |
| 1777816890 | 9.44° C | 47% | 1011.9 hPa | 0 mm | - | 398 W/m² | - |
| 1777816587 | 9.44° C | 51% | 1011.9 hPa | 0 mm | - | 531 W/m² | - |
| 1777816283 | 8.89° C | 49% | 1012 hPa | 0 mm | - | 313 W/m² | - |
| 1777815981 | 8.89° C | 55% | 1012.1 hPa | 0 mm | - | 251 W/m² | - |
| 1777815678 | 9.44° C | 54% | 1012.2 hPa | 0 mm | - | 321 W/m² | - |
| 1777815376 | 9.44° C | 50% | 1012.2 hPa | 0 mm | - | 330 W/m² | - |
| 1777815072 | 8.89° C | 52% | 1012.4 hPa | 0 mm | - | 354 W/m² | - |
| 1777814769 | 8.89° C | 50% | 1012.3 hPa | 0 mm | - | 380 W/m² | - |
| 1777814466 | 8.33° C | 55% | 1012.3 hPa | 0 mm | - | 288 W/m² | - |
| 1777814163 | 8.33° C | 57% | 1012.6 hPa | 0 mm | - | 296 W/m² | - |
* Rain latest hour (hover to see other rain measurements)
** Current wind speed in m/s (hover to see current wind gust speed)